When you browse on this site, cookies collect data to enhance your experience and personalize the content and advertising you see.
Visit our Privacy Policy to learn more. By continuing to use the site, you agree to this use of cookies and data.
  • In Czech Republic
  • List of Countries
  • For 7 days
  • Water Temperature
  • Weather Map
  • Weather Widgets
  • user-avatar
    Login

    Hourly Weather Konstantyna

    Today, 18 October, Friday

    Time Temperature Precipitation Wind Pressure Humidity
    00:00 +18°C° 0 mm 0 mps 712 mmHg 66%
    01:00 +18°C° 0 mm 0 mps 711 mmHg 68%
    02:00 +18°C° 0 mm 0 mps 711 mmHg 69%
    03:00 +17°C° 0 mm 0 mps 711 mmHg 70%
    04:00 +17°C° 0 mm 0 mps 711 mmHg 71%
    05:00 +17°C° 0 mm 0 mps 711 mmHg 72%
    06:00 +17°C° 0 mm 0 mps 711 mmHg 74%
    07:00 +18°C° 0 mm 0 mps 712 mmHg 67%
    08:00 +20°C° 0 mm 0 mps 712 mmHg 61%
    09:00 +22°C° 0 mm 0 mps 712 mmHg 54%
    10:00 +25°C° 0 mm 1 mps 712 mmHg 51%
    11:00 +26°C° 0 mm 1 mps 712 mmHg 48%
    12:00 +27°C° 0 mm 2 mps 712 mmHg 45%
    13:00 +27°C° 0 mm 2 mps 712 mmHg 45%
    14:00 +27°C° 0 mm 3 mps 712 mmHg 45%
    15:00 +27°C° 0 mm 3 mps 711 mmHg 45%
    16:00 +25°C° 0 mm 2 mps 711 mmHg 52%
    17:00 +23°C° 0 mm 2 mps 711 mmHg 60%
    18:00 +21°C° 0 mm 2 mps 711 mmHg 68%
    19:00 +21°C° 0 mm 1 mps 711 mmHg 71%
    20:00 +21°C° 0 mm 1 mps 711 mmHg 73%
    21:00 +20°C° 0 mm 1 mps 711 mmHg 75%
    22:00 +20°C° 0 mm 1 mps 711 mmHg 75%
    23:00 +20°C° 0 mm 1 mps 711 mmHg 75%

    Tomorrow, 19 October, Saturday

    Time Temperature Precipitation Wind Pressure Humidity
    00:00 +20°C° 0 mm 1 mps 710 mmHg 75%
    01:00 +20°C° 0 mm 1 mps 710 mmHg 74%
    02:00 +20°C° 0 mm 1 mps 710 mmHg 73%
    03:00 +20°C° 0 mm 1 mps 710 mmHg 72%
    04:00 +20°C° 0 mm 1 mps 709 mmHg 71%
    05:00 +20°C° 0 mm 1 mps 709 mmHg 71%
    06:00 +20°C° 0 mm 1 mps 709 mmHg 70%
    07:00 +21°C° 0 mm 2 mps 710 mmHg 62%
    08:00 +24°C° 0 mm 3 mps 710 mmHg 54%
    09:00 +26°C° 0 mm 3 mps 711 mmHg 46%
    10:00 +27°C° 0 mm 4 mps 711 mmHg 42%
    11:00 +28°C° 0 mm 4 mps 710 mmHg 38%
    12:00 +29°C° 0 mm 5 mps 710 mmHg 34%
    13:00 +30°C° 0 mm 4 mps 710 mmHg 33%
    14:00 +30°C° 0 mm 4 mps 709 mmHg 32%
    15:00 +30°C° 0 mm 4 mps 709 mmHg 31%
    16:00 +28°C° 0 mm 4 mps 709 mmHg 35%
    17:00 +26°C° 0 mm 3 mps 709 mmHg 40%
    18:00 +25°C° 0 mm 2 mps 709 mmHg 44%
    19:00 +24°C° 0 mm 2 mps 709 mmHg 46%
    20:00 +24°C° 0 mm 2 mps 709 mmHg 48%
    21:00 +23°C° 0 mm 2 mps 710 mmHg 50%
    22:00 +23°C° 0 mm 2 mps 709 mmHg 51%
    23:00 +21°C° 0 mm 2 mps 709 mmHg 52%

    Day after tomorrow, 20 October, Sunday

    Time Temperature Precipitation Wind Pressure Humidity
    00:00 +21°C° 0 mm 2 mps 709 mmHg 54%
    01:00 +21°C° 0 mm 2 mps 709 mmHg 54%
    02:00 +20°C° 0 mm 2 mps 709 mmHg 55%
    03:00 +20°C° 0 mm 2 mps 708 mmHg 55%
    04:00 +20°C° 0 mm 2 mps 708 mmHg 56%
    05:00 +20°C° 0 mm 2 mps 708 mmHg 57%
    06:00 +19°C° 0 mm 2 mps 708 mmHg 57%
    07:00 +21°C° 0 mm 2 mps 709 mmHg 51%
    08:00 +24°C° 0 mm 3 mps 710 mmHg 45%
    09:00 +27°C° 0 mm 3 mps 710 mmHg 39%
    10:00 +28°C° 0 mm 3 mps 710 mmHg 36%
    11:00 +29°C° 0 mm 3 mps 710 mmHg 33%
    12:00 +30°C° 0 mm 3 mps 710 mmHg 30%
    13:00 +30°C° 0 mm 3 mps 710 mmHg 28%
    14:00 +30°C° 0 mm 2 mps 710 mmHg 27%
    15:00 +30°C° 0 mm 2 mps 710 mmHg 26%
    16:00 +28°C° 0 mm 2 mps 710 mmHg 32%
    17:00 +26°C° 0 mm 2 mps 710 mmHg 37%
    18:00 +25°C° 0 mm 2 mps 709 mmHg 43%
    19:00 +24°C° 0 mm 2 mps 710 mmHg 46%
    20:00 +23°C° 0 mm 1 mps 710 mmHg 49%
    21:00 +23°C° 0 mm 1 mps 710 mmHg 52%
    22:00 +22°C° 0 mm 1 mps 710 mmHg 52%
    23:00 +22°C° 0 mm 1 mps 710 mmHg 52%

    21 October, Monday

    Time Temperature Precipitation Wind Pressure Humidity
    00:00 +22°C° 0 mm 1 mps 709 mmHg 52%
    01:00 +21°C° 0 mm 1 mps 709 mmHg 53%
    02:00 +21°C° 0 mm 1 mps 709 mmHg 54%
    03:00 +21°C° 0 mm 1 mps 709 mmHg 55%
    04:00 +19°C° 0 mm 0 mps 709 mmHg 56%
    05:00 +18°C° 0 mm 0 mps 709 mmHg 57%
    06:00 +18°C° 0 mm 0 mps 709 mmHg 58%
    07:00 +22°C° 0 mm 1 mps 710 mmHg 52%
    08:00 +24°C° 0 mm 1 mps 711 mmHg 45%
    09:00 +26°C° 0 mm 2 mps 711 mmHg 39%
    10:00 +27°C° 0 mm 2 mps 711 mmHg 38%
    11:00 +28°C° 0 mm 2 mps 711 mmHg 37%
    12:00 +28°C° 0 mm 3 mps 711 mmHg 36%
    13:00 +28°C° 0.2 mm 3 mps 710 mmHg 42%
    14:00 +27°C° 0.2 mm 3 mps 710 mmHg 48%
    15:00 +26°C° 0.2 mm 3 mps 709 mmHg 54%
    16:00 +25°C° 0.7 mm 3 mps 709 mmHg 63%
    17:00 +22°C° 0.7 mm 3 mps 709 mmHg 72%
    18:00 +21°C° 0.7 mm 3 mps 709 mmHg 81%
    19:00 +20°C° 1.1 mm 3 mps 709 mmHg 82%
    20:00 +20°C° 1.1 mm 2 mps 709 mmHg 84%
    21:00 +20°C° 1.1 mm 2 mps 709 mmHg 85%
    22:00 +19°C° 0 mm 2 mps 709 mmHg 86%
    23:00 +19°C° 0 mm 2 mps 708 mmHg 87%

    22 October, Tuesday

    Time Temperature Precipitation Wind Pressure Humidity
    00:00 +20°C° 0 mm 1 mps 708 mmHg 89%
    01:00 +20°C° 0 mm 1 mps 708 mmHg 85%
    02:00 +19°C° 0 mm 2 mps 707 mmHg 81%
    03:00 +18°C° 0 mm 2 mps 707 mmHg 77%
    04:00 +18°C° 0 mm 2 mps 707 mmHg 76%
    05:00 +18°C° 0 mm 2 mps 706 mmHg 75%
    06:00 +18°C° 0 mm 2 mps 706 mmHg 73%
    07:00 +20°C° 0 mm 2 mps 707 mmHg 67%
    08:00 +22°C° 0 mm 3 mps 707 mmHg 61%
    09:00 +25°C° 0 mm 3 mps 707 mmHg 55%
    10:00 +26°C° 0 mm 3 mps 707 mmHg 48%
    11:00 +28°C° 0 mm 2 mps 707 mmHg 41%
    12:00 +29°C° 0 mm 2 mps 707 mmHg 34%
    13:00 +29°C° 0 mm 3 mps 707 mmHg 37%
    14:00 +28°C° 0 mm 3 mps 706 mmHg 40%
    15:00 +28°C° 0 mm 4 mps 706 mmHg 44%
    16:00 +26°C° 0 mm 4 mps 705 mmHg 50%
    17:00 +25°C° 0 mm 3 mps 705 mmHg 57%
    18:00 +22°C° 0 mm 3 mps 704 mmHg 63%
    19:00 +22°C° 0 mm 4 mps 704 mmHg 62%
    20:00 +22°C° 0 mm 5 mps 704 mmHg 60%
    21:00 +22°C° 0 mm 6 mps 704 mmHg 59%
    22:00 +23°C° 0 mm 7 mps 703 mmHg 57%
    23:00 +23°C° 0 mm 8 mps 703 mmHg 54%

    23 October, Wednesday

    Time Temperature Precipitation Wind Pressure Humidity
    00:00 +23°C° 0 mm 9 mps 703 mmHg 52%
    01:00 +23°C° 0 mm 10 mps 702 mmHg 52%
    02:00 +23°C° 0 mm 11 mps 702 mmHg 53%
    03:00 +23°C° 0 mm 13 mps 701 mmHg 53%
    04:00 +23°C° 0 mm 11 mps 701 mmHg 53%
    05:00 +23°C° 0 mm 10 mps 701 mmHg 52%
    06:00 +22°C° 0 mm 9 mps 701 mmHg 52%
    07:00 +24°C° 0 mm 9 mps 702 mmHg 45%
    08:00 +26°C° 0 mm 9 mps 702 mmHg 38%
    09:00 +28°C° 0 mm 10 mps 703 mmHg 32%
    10:00 +28°C° 0 mm 10 mps 703 mmHg 28%
    11:00 +28°C° 0 mm 11 mps 703 mmHg 25%
    12:00 +28°C° 0 mm 11 mps 703 mmHg 21%
    13:00 +27°C° 0 mm 10 mps 703 mmHg 24%
    14:00 +24°C° 0 mm 9 mps 703 mmHg 27%
    15:00 +23°C° 0 mm 8 mps 704 mmHg 30%
    16:00 +21°C° 0 mm 7 mps 704 mmHg 33%
    17:00 +19°C° 0 mm 6 mps 705 mmHg 37%
    18:00 +18°C° 0 mm 4 mps 705 mmHg 40%
    19:00 +17°C° 0 mm 4 mps 706 mmHg 43%
    20:00 +16°C° 0 mm 3 mps 706 mmHg 45%
    21:00 +16°C° 0 mm 2 mps 707 mmHg 48%
    22:00 +14°C° 0 mm 3 mps 707 mmHg 49%
    23:00 +14°C° 0 mm 3 mps 707 mmHg 50%
    Show more